Location: Unspecified
(34.4500°N, 0.0000°E)
Time: 13:56:13
(UTC+00:00)

Envisat - Pass Details

Date: 10 March 2021
Orbit: 764 x 766 km, 98.1° (Epoch: 17 April)

Event Time Altitude Azimuth Distance (km) Brightness Sun altitude
Rises 05:40:48 0° 11° (N) 3,236 6.4 -8.3°
Reaches altitude 10° 05:43:06 10° 10° (N) 2,306 5.6 -7.9°
Maximum altitude 05:48:11 81° 284° (WNW) 777 3.0 -6.8°
Drops below altitude 10° 05:53:15 10° 197° (SSW) 2,291 5.3 -5.8°
Sets 05:55:32 0° 196° (SSW) 3,213 6.1 -5.3°
